Temp
-4 -4 -3 -3 -3 -2 -2 -2 -1 -1 -1 -1 -1 -1 -1 -1 -1 -1 -1 -1 -2 -2 -1 -0 0 1 2 2 2 3 3 4 4 2 3 4 4 6 6 7 7 7 6 6 7 6 6 12 13 12 12 8 9 8
-3 -3 -3 -3 -2 -2 -2 -1 -1 -1 -1 -0 -1 -1 -1 -1 -1 -1 -1 -1 -1 -1 -1 -0 -0 1 1 2 2 3 3 2 0 2 4 5 4 5 6 5 8 6 8 7 7 7 10 11 10 10 11 10 9 6
-4 -3 -3 -2 -2 -2 -1 -1 -1 -1 -1 -1 -1 -1 -1 -1 -1 -1 -1 -1 -1 -1 -1 -1 -1 1 1 1 1 1 2 2 3 3 3 2 1 3 3 5 6 8 9 7 7 8 8 8 8 7 8 9 6 6
-3 -3 -2 -2 -2 -2 -1 -1 -1 -0 -1 -1 -1 -0 -1 -0 -0 -0 -1 -1 -1 -1 -1 -0 1 -0 1 1 1 1 2 2 2 2 1 1 1 4 3 5 5 6 7 6 6 7 7 7 8 8 8 6 5 6
-3 -3 -2 -2 -2 -2 -1 -1 -1 -0 -0 -0 -0 -0 -0 0 -0 -0 -0 0 -1 -1 -0 1 2 2 1 1 0 1 1 1 1 1 1 1 2 2 3 3 4 6 6 5 5 7 7 7 7 7 6 5 5 5
-3 -3 -2 -2 -2 -2 -2 -1 -1 -1 -1 -1 -1 -0 -0 0 -0 -0 -0 -0 -0 -0 -1 0 1 2 3 2 1 1 1 2 1 1 1 1 2 3 2 3 6 6 6 6 6 6 7 7 7 5 4 4 3 5
-3 -3 -2 -3 -2 -2 -2 -1 -1 -1 -1 -1 -0 -0 0 0 -0 -0 -1 -0 -0 -0 -1 -0 1 3 3 3 2 2 2 2 1 1 1 1 2 3 2 2 5 5 5 6 6 6 5 5 5 4 3 2 4 5
-4 -3 -3 -2 -2 -2 -2 -1 -1 -1 -0 -0 -0 -0 -0 -0 -1 -1 -1 -1 -0 -1 -1 0 2 3 4 3 3 3 2 2 0 0 1 2 2 3 1 4 4 5 5 5 5 5 4 4 4 2 1 3 4 2
-4 -3 -3 -2 -2 -2 -1 -1 -1 -0 0 0 -0 -0 -0 -1 -1 -1 -1 -1 -1 -1 -1 -0 3 4 4 3 3 2 2 1 1 1 2 2 3 2 4 5 5 5 5 5 4 4 2 2 1 1 2 3 1 1
-4 -3 -2 -2 -2 -2 -1 -1 -0 0 1 0 0 -0 -1 -0 -0 -1 -1 -1 -1 -1 -1 -0 3 4 3 2 1 0 -0 2 2 2 3 2 2 4 5 5 5 5 4 4 3 2 1 1 3 4 1 0 -0 -0
-4 -3 -2 -2 -2 -1 -1 -0 0 0 -0 0 0 -0 -1 -1 -1 -0 -1 -1 -0 0 -0 0 2 3 2 2 2 0 2 2 3 5 3 4 5 5 5 5 4 4 3 3 2 0 2 3 2 1 -0 -1 -1 -1
-5 -3 -2 -2 -2 -1 -1 -0 0 0 0 1 0 -0 -1 -0 0 0 1 3 3 4 3 3 2 2 1 0 1 0 1 2 3 2 3 4 3 1 2 2 7 5 3 1 1 2 1 1 0 -1 -2 -2 -2 -2
-5 -3 -2 -2 -1 -1 -0 0 0 0 1 0 1 0 0 1 1 2 3 5 5 5 2 0 1 0 -1 -0 -0 2 2 3 2 3 4 3 1 -0 -0 0 1 2 2 1 -0 -0 -1 -1 -1 -2 -2 -3 -3 -3
-5 -3 -2 -2 -1 -1 -0 0 0 0 0 1 1 1 2 2 3 5 4 3 1 1 1 0 0 1 -0 1 1 2 4 3 3 4 5 1 -1 -2 -2 -1 -1 -2 -2 -2 -2 -2 -2 -2 -3 -3 -3 -3 -3 -4
-5 -3 -2 -1 -1 -1 -0 0 0 0 1 2 2 3 3 5 4 3 2 2 1 0 0 0 1 1 2 2 2 3 3 3 4 4 1 -1 -2 -2 -3 -3 -3 -3 -3 -3 -4 -3 -4 -3 -4 -5 -4 -4 -4 -5
-6 -3 -1 -1 -1 -0 -0 0 1 0 1 3 4 4 4 4 1 1 2 3 2 1 1 1 3 3 3 4 4 4 5 5 2 0 -2 -2 -2 -3 -3 -3 -3 -3 -4 -4 -4 -4 -4 -5 -5 -5 -5 -4 -4 -5
-5 -3 -2 -1 -1 -0 -0 0 1 2 3 5 4 4 4 4 2 2 3 4 4 4 4 5 4 5 6 6 7 6 3 1 -0 -1 -2 -2 -3 -3 -3 -3 -3 -3 -3 -4 -4 -4 -4 -5 -4 -4 -6 -7 -7 -7
-4 -4 -3 -2 -1 -0 0 1 3 4 5 5 4 4 4 3 3 4 4 4 4 4 5 6 6 6 5 6 5 2 -0 -1 -1 -2 -2 -3 -3 -3 -3 -3 -3 -4 -4 -4 -4 -5 -6 -6 -6 -7 -7 -7 -8 -8
-6 -5 -3 -2 -1 -0 1 3 3 4 5 5 4 3 3 3 3 3 3 4 4 4 4 5 6 6 6 5 3 -0 -2 -2 -2 -2 -2 -3 -3 -3 -4 -4 -4 -4 -4 -5 -5 -5 -6 -6 -6 -7 -8 -8 -8 -9
-4 -3 -1 -1 -1 -1 2 3 3 4 5 4 4 4 3 4 3 3 3 4 4 4 5 5 5 3 2 1 1 -1 -2 -2 -2 -3 -3 -3 -4 -4 -4 -5 -5 -5 -5 -5 -5 -6 -6 -7 -7 -7 -7 -8 -8 -9
-4 -3 -3 -2 -1 -1 2 4 4 5 5 4 4 5 4 4 4 3 4 4 3 4 5 4 3 1 -0 -1 -1 -1 -1 -1 -1 -2 -3 -3 -4 -4 -4 -4 -5 -5 -5 -5 -5 -6 -6 -6 -6 -7 -8 -8 -9 -9
-4 -3 -3 -2 -1 1 2 3 4 4 5 5 5 5 4 3 3 3 4 4 4 4 4 3 2 1 -1 -1 -2 -2 -1 -1 -1 -2 -3 -3 -4 -4 -4 -5 -5 -5 -4 -5 -5 -5 -6 -6 -6 -7 -8 -9 -9 -10
-4 -3 -2 -1 -0 1 1 2 3 4 4 4 4 5 4 4 4 3 3 4 4 2 2 2 1 1 -0 -0 -0 -0 -0 -0 -1 -2 -3 -3 -3 -4 -4 -5 -5 -5 -5 -5 -5 -5 -6 -6 -8 -8 -9 -9 -9 -11
-4 -4 -3 -1 -0 0 0 1 3 4 4 5 4 4 5 4 3 3 4 5 3 1 1 1 1 1 -0 -0 -0 -0 0 0 -1 -2 -3 -3 -3 -4 -4 -4 -5 -5 -4 -5 -5 -5 -6 -7 -8 -9 -9 -8 -9 -10
-4 -3 -3 -2 -1 -1 -0 0 2 3 1 3 4 3 3 3 3 3 4 4 2 2 1 0 1 2 2 2 1 0 -0 -0 -1 -2 -3 -3 -3 -4 -4 -4 -4 -4 -4 -5 -5 -6 -7 -8 -9 -9 -10 -9 -9 -11
-4 -3 -3 -1 -1 -0 1 0 0 1 2 2 3 4 3 3 2 2 4 2 -0 -1 -2 -3 -1 1 1 2 1 1 0 -1 -1 -2 -3 -3 -3 -3 -4 -4 -4 -4 -5 -4 -5 -6 -8 -8 -9 -9 -10 -10 -10 -11
-3 -2 -2 -1 0 1 1 1 2 2 1 1 2 1 1 1 1 1 -3 -3 -2 -4 -4 -4 -2 -1 -1 -0 -0 -1 -1 -1 -1 -0 -1 -3 -3 -3 -3 -4 -4 -4 -4 -5 -5 -5 -5 -7 -8 -9 -9 -10 -10 -10
-4 -2 -2 -2 -1 -0 -0 0 0 1 1 3 2 1 1 2 1 -4 -4 -5 -4 -4 -4 -3 -2 -2 -2 -1 -2 -3 -2 -2 -2 -2 -3 -3 -3 -3 -3 -4 -4 -4 -4 -4 -4 -5 -5 -6 -6 -8 -8 -8 -9 -10
-4 -3 -2 -3 -2 -1 -1 -0 0 1 1 2 1 1 -2 -4 -5 -5 -5 -5 -4 -5 -5 -5 -5 -5 -4 -2 -3 -4 -3 -3 -3 -3 -3 -3 -3 -3 -4 -4 -4 -4 -4 -4 -4 -4 -4 -5 -5 -6 -7 -7 -8 -9
-4 -3 -3 -2 -2 -2 -1 -1 -2 -2 -2 -2 -3 -4 -5 -6 -6 -6 -5 -5 -5 -5 -5 -5 -5 -5 -5 -4 -4 -4 -4 -3 -3 -3 -3 -3 -3 -3 -3 -4 -4 -4 -4 -4 -4 -5 -6 -7 -7 -8 -8 -9 -9 -10
-4 -3 -2 -2 -2 -3 -4 -4 -4 -4 -4 -3 -3 -3 -5 -6 -6 -6 -6 -6 -6 -6 -5 -5 -5 -5 -5 -5 -5 -4 -4 -4 -3 -4 -4 -3 -3 -3 -3 -4 -3 -3 -3 -4 -4 -5 -5 -6 -7 -7 -8 -8 -9 -9
-5 -3 -2 -2 -3 -5 -5 -5 -4 -4 -4 -4 -4 -5 -5 -5 -5 -7 -6 -6 -6 -6 -6 -6 -6 -6 -5 -5 -4 -4 -4 -4 -4 -3 -3 -3 -3 -3 -3 -3 -3 -3 -4 -4 -4 -5 -5 -6 -6 -7 -7 -8 -8 -9
-4 -4 -3 -3 -5 -4 -5 -4 -3 -3 -3 -2 -3 -4 -4 -3 -5 -7 -7 -6 -6 -6 -6 -6 -6 -6 -5 -5 -5 -4 -4 -4 -4 -3 -3 -3 -3 -3 -3 -3 -3 -3 -4 -4 -5 -5 -6 -6 -6 -7 -7 -8 -8 -9
Height
1460 1462 1465 1466 1468 1470 1471 1473 1473 1474 1474 1475 1476 1478 1481 1483 1486 1488 1486 1492 1493 1487 1483 1488 1488 1489 1491 1491 1488 1484 1484 1477 1479 1482 1475 1469 1465 1460 1461 1456 1455 1453 1454 1450 1446 1446 1436 1419 1413 1418 1409 1404 1403 1397
1457 1459 1460 1462 1464 1466 1467 1467 1466 1466 1466 1467 1469 1471 1472 1475 1477 1480 1478 1481 1484 1481 1473 1472 1475 1476 1479 1481 1484 1481 1480 1479 1477 1469 1465 1459 1458 1453 1450 1449 1444 1447 1442 1441 1442 1434 1425 1418 1416 1416 1414 1414 1406 1408
1453 1454 1456 1458 1460 1460 1461 1460 1460 1460 1459 1460 1462 1464 1466 1467 1469 1472 1471 1474 1475 1472 1464 1462 1460 1466 1467 1466 1471 1476 1471 1469 1469 1470 1468 1465 1459 1460 1452 1440 1437 1435 1435 1433 1434 1425 1423 1422 1414 1416 1412 1409 1403 1394
1449 1451 1453 1454 1454 1455 1455 1456 1455 1454 1455 1456 1457 1458 1458 1459 1460 1461 1460 1463 1467 1466 1458 1445 1450 1447 1450 1459 1459 1461 1457 1464 1465 1465 1464 1460 1455 1448 1443 1437 1437 1434 1434 1427 1424 1422 1418 1416 1414 1411 1404 1400 1397 1390
1446 1447 1448 1449 1450 1450 1451 1451 1450 1451 1450 1451 1451 1452 1452 1452 1453 1453 1453 1453 1455 1458 1449 1443 1442 1442 1442 1446 1448 1452 1454 1454 1454 1454 1454 1448 1445 1447 1439 1436 1428 1422 1422 1421 1413 1411 1410 1404 1404 1406 1402 1392 1384 1386
1441 1442 1443 1445 1445 1446 1446 1446 1446 1446 1447 1447 1446 1446 1445 1446 1448 1448 1444 1442 1444 1446 1445 1440 1434 1435 1435 1437 1438 1438 1440 1441 1445 1443 1438 1437 1434 1439 1428 1415 1409 1411 1411 1410 1405 1402 1400 1398 1394 1397 1393 1387 1382 1374
1437 1438 1440 1440 1441 1441 1441 1442 1442 1442 1442 1441 1440 1439 1438 1439 1441 1441 1438 1436 1437 1442 1442 1436 1428 1422 1423 1426 1428 1429 1431 1431 1433 1432 1428 1428 1422 1427 1420 1405 1396 1402 1401 1400 1396 1392 1388 1391 1386 1389 1389 1381 1380 1371
1432 1434 1436 1436 1437 1437 1437 1438 1438 1437 1436 1435 1434 1434 1435 1434 1435 1433 1430 1433 1434 1436 1439 1433 1422 1419 1417 1418 1421 1421 1422 1425 1421 1420 1416 1415 1414 1412 1400 1389 1390 1389 1389 1386 1383 1384 1377 1376 1375 1375 1376 1376 1369 1356
1427 1429 1430 1432 1432 1433 1433 1434 1433 1433 1430 1429 1429 1431 1431 1430 1428 1425 1422 1428 1430 1435 1432 1429 1418 1410 1412 1414 1416 1417 1416 1416 1412 1407 1405 1409 1398 1385 1374 1376 1375 1374 1375 1373 1370 1373 1373 1369 1363 1365 1364 1366 1359 1362
1421 1423 1426 1428 1428 1429 1429 1429 1429 1427 1425 1425 1427 1427 1428 1427 1428 1427 1429 1430 1431 1428 1426 1419 1413 1408 1411 1412 1413 1416 1415 1408 1399 1392 1394 1389 1377 1367 1367 1362 1360 1360 1364 1366 1363 1358 1359 1348 1345 1354 1355 1362 1364 1365
1415 1418 1421 1423 1424 1425 1425 1425 1425 1423 1423 1424 1424 1425 1426 1428 1429 1427 1428 1428 1426 1422 1416 1410 1410 1408 1410 1411 1410 1412 1407 1400 1388 1374 1378 1366 1356 1356 1353 1349 1349 1350 1354 1357 1359 1344 1336 1337 1340 1349 1356 1364 1370 1375
1411 1413 1416 1419 1420 1421 1422 1422 1422 1422 1418 1419 1420 1423 1427 1428 1426 1426 1421 1417 1414 1405 1404 1404 1404 1405 1405 1406 1407 1405 1401 1397 1380 1377 1373 1360 1358 1356 1349 1342 1333 1338 1344 1349 1350 1340 1342 1343 1348 1355 1365 1371 1378 1383
1406 1408 1411 1414 1416 1417 1418 1419 1420 1419 1419 1420 1420 1422 1423 1422 1421 1415 1406 1399 1397 1396 1401 1402 1403 1403 1403 1404 1404 1400 1394 1385 1382 1375 1363 1364 1365 1361 1357 1352 1344 1343 1344 1346 1350 1353 1352 1357 1363 1367 1371 1379 1384 1390
1401 1402 1405 1408 1411 1413 1415 1416 1417 1417 1419 1417 1417 1418 1415 1410 1405 1396 1396 1398 1400 1400 1400 1401 1401 1401 1401 1402 1399 1394 1385 1383 1374 1363 1357 1370 1370 1366 1361 1358 1354 1355 1356 1358 1359 1361 1364 1368 1373 1379 1383 1388 1393 1398
1396 1398 1400 1403 1406 1408 1411 1413 1414 1414 1415 1412 1408 1404 1401 1396 1396 1397 1398 1398 1398 1399 1399 1400 1399 1399 1396 1394 1391 1386 1382 1376 1369 1366 1376 1376 1373 1371 1368 1367 1366 1366 1367 1368 1372 1373 1376 1379 1384 1389 1392 1395 1401 1405
1393 1394 1394 1398 1401 1404 1407 1409 1410 1411 1410 1405 1399 1395 1395 1395 1397 1398 1397 1396 1396 1397 1398 1397 1394 1392 1389 1385 1381 1378 1372 1366 1377 1383 1384 1381 1378 1376 1375 1375 1374 1376 1378 1380 1383 1386 1389 1391 1392 1392 1397 1403 1410 1416
1391 1392 1393 1394 1396 1400 1403 1405 1407 1405 1400 1394 1392 1391 1392 1393 1394 1395 1395 1394 1393 1394 1393 1389 1387 1384 1380 1376 1370 1369 1378 1387 1389 1389 1390 1389 1387 1386 1383 1383 1384 1385 1386 1389 1390 1394 1395 1397 1398 1401 1406 1415 1420 1424
1389 1391 1390 1391 1393 1395 1398 1399 1398 1393 1389 1388 1388 1390 1390 1391 1391 1392 1392 1392 1391 1390 1389 1385 1384 1379 1380 1374 1374 1383 1384 1386 1388 1389 1389 1389 1390 1390 1390 1391 1392 1394 1394 1396 1399 1400 1402 1404 1408 1413 1418 1423 1426 1430
1383 1382 1383 1386 1389 1391 1393 1393 1393 1387 1383 1384 1385 1386 1388 1389 1390 1391 1391 1391 1390 1390 1389 1386 1382 1378 1377 1381 1384 1386 1387 1387 1388 1390 1391 1392 1393 1394 1395 1396 1396 1397 1399 1402 1405 1408 1411 1414 1416 1421 1424 1427 1429 1434
1377 1377 1378 1382 1386 1389 1387 1386 1386 1383 1380 1381 1382 1384 1386 1387 1388 1388 1389 1389 1389 1388 1387 1384 1383 1384 1385 1386 1387 1387 1388 1390 1390 1392 1394 1396 1397 1398 1399 1399 1401 1403 1406 1409 1412 1415 1418 1421 1424 1428 1430 1432 1433 1436
1375 1375 1377 1379 1382 1383 1381 1378 1378 1376 1376 1378 1378 1380 1382 1383 1385 1386 1386 1386 1387 1385 1382 1385 1386 1387 1385 1387 1387 1387 1389 1392 1393 1395 1396 1398 1399 1401 1402 1403 1405 1409 1412 1415 1418 1421 1424 1426 1429 1430 1432 1435 1437 1439
1374 1374 1377 1378 1379 1379 1377 1374 1373 1372 1374 1373 1375 1377 1380 1383 1383 1383 1383 1384 1382 1382 1383 1385 1386 1385 1386 1386 1386 1388 1391 1393 1395 1396 1399 1400 1402 1404 1406 1408 1410 1413 1416 1419 1421 1424 1426 1427 1429 1432 1434 1436 1439 1441
1372 1373 1374 1374 1374 1373 1373 1371 1371 1370 1369 1371 1373 1374 1375 1377 1378 1381 1381 1378 1379 1381 1383 1384 1385 1385 1385 1387 1389 1391 1393 1394 1396 1397 1398 1401 1403 1404 1406 1409 1412 1414 1417 1420 1422 1424 1425 1429 1431 1433 1435 1438 1440 1443
1370 1371 1370 1369 1368 1368 1369 1367 1366 1365 1365 1365 1368 1369 1369 1373 1377 1377 1373 1373 1376 1379 1382 1383 1384 1386 1388 1389 1390 1391 1393 1395 1395 1396 1398 1400 1402 1404 1407 1409 1411 1414 1417 1419 1421 1423 1427 1429 1431 1434 1436 1437 1440 1443
1370 1367 1367 1363 1363 1366 1365 1364 1361 1360 1365 1364 1363 1366 1369 1373 1374 1371 1369 1370 1374 1377 1379 1381 1383 1384 1386 1387 1389 1391 1392 1393 1393 1395 1397 1400 1401 1404 1407 1409 1411 1413 1415 1416 1419 1423 1425 1428 1431 1434 1436 1438 1440 1443
1363 1359 1359 1356 1358 1358 1358 1359 1360 1361 1362 1363 1362 1364 1367 1369 1370 1368 1365 1369 1371 1375 1377 1379 1381 1383 1385 1386 1387 1388 1390 1392 1392 1393 1395 1397 1398 1401 1404 1406 1409 1412 1413 1416 1418 1421 1424 1427 1430 1433 1435 1438 1440 1443
1356 1352 1352 1352 1352 1352 1353 1354 1355 1356 1359 1361 1360 1365 1367 1367 1364 1366 1369 1370 1372 1374 1375 1377 1378 1380 1382 1383 1385 1386 1389 1390 1391 1392 1393 1395 1397 1400 1402 1404 1406 1409 1410 1414 1416 1419 1422 1425 1428 1431 1434 1437 1439 1442
1352 1349 1350 1351 1351 1351 1352 1353 1354 1354 1354 1353 1358 1360 1360 1358 1361 1368 1369 1370 1371 1373 1374 1374 1376 1377 1378 1380 1382 1384 1387 1389 1390 1391 1392 1394 1396 1399 1401 1403 1406 1407 1410 1413 1415 1418 1421 1424 1427 1429 1432 1434 1437 1440
1348 1347 1348 1349 1350 1349 1350 1351 1350 1349 1350 1350 1352 1354 1361 1364 1365 1366 1368 1369 1370 1372 1373 1374 1374 1374 1375 1376 1379 1381 1383 1386 1387 1388 1390 1392 1394 1397 1399 1401 1403 1405 1408 1411 1415 1418 1421 1424 1426 1428 1431 1433 1436 1438
1344 1344 1345 1346 1346 1345 1346 1347 1347 1348 1350 1351 1353 1358 1361 1364 1366 1367 1368 1369 1370 1371 1372 1373 1373 1374 1375 1375 1376 1379 1381 1383 1385 1387 1389 1390 1392 1394 1396 1398 1400 1403 1406 1409 1413 1416 1420 1423 1425 1427 1429 1432 1434 1436
1340 1341 1342 1342 1342 1343 1345 1346 1347 1349 1351 1352 1354 1356 1359 1363 1366 1367 1368 1369 1371 1372 1373 1373 1374 1374 1375 1375 1377 1378 1379 1381 1383 1385 1386 1388 1390 1391 1393 1395 1398 1401 1403 1407 1410 1413 1416 1419 1422 1424 1427 1429 1431 1434
1337 1337 1337 1338 1341 1344 1345 1346 1348 1349 1351 1352 1354 1356 1360 1362 1365 1367 1368 1369 1370 1371 1372 1372 1373 1373 1374 1375 1376 1377 1378 1379 1380 1382 1384 1386 1387 1389 1390 1393 1397 1399 1402 1405 1408 1411 1413 1416 1418 1421 1424 1426 1429 1431
1334 1335 1334 1336 1339 1341 1343 1344 1344 1345 1347 1348 1351 1354 1356 1357 1361 1365 1365 1366 1368 1369 1369 1370 1371 1372 1373 1374 1375 1375 1376 1378 1379 1380 1382 1384 1386 1387 1389 1391 1394 1397 1400 1403 1406 1409 1411 1414 1416 1419 1421 1423 1426 1428
Wind_Speed
13 15 16 16 17 15 16 18 20 23 25 25 25 26 29 30 30 32 37 34 33 31 38 29 27 37 32 28 13 17 11 15 8 6 6 11 9 12 16 23 23 20 16 14 15 19 24 19 17 18 9 35 40 49
14 16 16 14 14 15 17 19 22 23 24 26 26 25 26 28 28 29 39 39 39 42 19 12 39 45 40 35 33 31 25 23 5 4 6 6 9 8 15 14 18 17 17 15 17 15 27 40 37 43 45 39 45 43
15 14 13 14 16 16 17 17 19 20 20 21 21 23 24 26 27 29 35 35 32 36 41 38 39 36 30 40 43 29 32 33 29 28 18 5 9 4 6 11 17 18 23 15 19 21 26 36 39 43 46 36 45 64
12 12 13 15 16 19 19 19 18 16 17 19 19 20 21 18 20 30 36 36 36 19 8 20 26 37 44 41 36 39 51 40 34 28 20 7 10 10 13 15 13 14 18 20 19 23 29 37 38 35 39 47 46 49
12 15 15 15 17 18 17 16 13 12 12 13 14 17 20 20 18 19 23 32 35 30 4 7 14 27 23 28 41 43 40 37 34 26 12 12 15 11 13 13 13 24 19 15 18 31 26 34 39 39 35 46 60 60
13 15 15 14 14 13 13 13 12 12 8 11 14 15 19 22 19 18 12 28 32 32 8 4 14 25 20 30 28 38 45 43 35 19 10 19 40 20 6 10 23 30 29 32 26 37 40 42 35 33 39 53 53 45
21 18 17 12 10 12 12 13 13 12 13 14 16 19 16 15 19 22 9 3 7 21 6 3 5 14 30 27 34 34 32 33 34 32 27 28 32 24 10 19 31 34 35 33 35 38 39 38 34 35 38 46 42 28
22 19 15 11 11 10 12 12 12 13 15 19 20 11 8 9 14 20 28 19 15 25 6 3 4 3 13 19 16 22 27 23 11 13 12 12 18 17 11 23 36 40 40 39 38 37 43 42 41 40 47 46 22 37
21 19 16 13 12 10 11 12 11 13 16 14 7 8 7 7 6 9 7 13 24 10 4 4 5 8 7 15 10 6 6 4 9 5 8 9 8 9 13 22 31 33 31 32 35 35 31 38 44 45 31 27 37 39
19 19 16 14 12 10 10 9 8 12 10 8 8 5 3 3 4 15 6 12 11 7 6 4 13 7 6 6 4 2 4 3 4 7 8 7 14 38 37 41 40 38 34 28 26 36 39 51 26 26 29 31 35 41
18 20 18 15 12 10 10 7 8 7 6 6 8 5 7 11 7 2 3 5 6 3 7 9 18 9 7 4 5 9 2 3 4 4 7 4 5 13 36 43 47 49 41 33 30 44 33 28 40 38 35 36 40 40
17 20 19 17 14 11 11 8 6 4 2 4 5 10 14 4 3 3 4 5 6 4 7 4 4 5 5 9 3 5 3 3 6 2 3 3 4 18 20 20 16 19 16 10 6 21 31 35 34 40 42 41 38 39
16 19 20 19 16 12 11 8 6 4 9 6 4 6 6 6 5 5 6 5 4 5 7 3 2 2 3 6 4 3 5 5 1 3 3 2 8 12 10 15 20 15 16 17 21 24 28 35 38 40 41 39 38 36
14 18 19 21 18 15 12 10 6 3 9 4 5 4 5 5 6 4 4 2 3 2 3 7 2 3 4 3 2 4 3 3 4 3 2 4 9 8 7 10 18 25 28 30 32 35 37 38 38 38 37 36 34 34
12 16 19 21 20 17 13 12 9 7 6 6 6 5 7 9 3 4 7 6 2 3 4 3 4 5 3 3 3 4 4 4 3 3 3 10 9 11 18 21 25 27 29 32 33 35 36 37 38 36 33 34 33 33
12 13 15 16 18 17 14 12 11 9 5 5 7 5 4 5 2 2 4 3 6 6 6 4 3 3 4 3 4 4 4 3 4 3 2 6 12 17 21 21 22 25 28 31 33 34 34 33 34 35 33 31 28 27
4 6 9 10 14 14 13 12 9 8 7 5 4 7 8 7 7 6 8 4 6 5 2 3 3 4 3 3 3 3 3 3 4 6 12 12 17 20 20 22 23 25 27 29 30 28 27 28 31 33 34 32 30 28
7 5 11 14 11 11 11 14 7 6 7 11 6 9 12 7 8 6 2 2 2 2 7 2 4 3 1 4 4 2 3 6 10 12 12 13 16 15 17 19 20 23 26 25 24 25 29 30 29 27 27 27 26 23
13 18 18 16 14 10 8 10 13 5 10 5 9 8 11 8 7 4 3 4 4 5 5 4 3 3 3 5 4 5 6 7 12 14 13 13 13 14 15 15 18 21 23 23 26 24 22 23 26 26 25 22 24 22
9 10 13 17 16 6 6 5 10 7 5 9 10 12 13 11 8 6 6 5 4 3 2 2 2 4 4 3 2 8 13 15 14 12 11 11 12 12 14 15 19 22 24 23 22 21 23 22 21 19 18 18 20 19
1 4 12 14 14 9 4 6 9 7 6 5 12 12 6 8 9 9 8 5 2 3 2 2 1 3 3 2 5 10 16 15 10 9 15 16 13 13 12 15 19 22 21 21 20 20 19 20 19 18 19 18 17 16
5 8 6 10 6 8 6 7 5 7 5 6 11 11 7 4 4 7 6 5 4 3 2 4 3 3 6 5 10 14 16 12 9 10 15 18 18 16 17 18 22 20 19 19 20 20 20 20 19 18 17 19 17 17
4 7 4 7 6 6 5 5 7 7 5 5 10 7 4 5 7 7 4 6 4 5 6 6 5 7 11 13 13 12 11 10 10 13 17 16 15 16 17 17 18 21 20 18 19 21 21 19 19 20 18 17 18 20
5 4 4 5 8 4 3 4 5 8 6 7 6 4 5 5 7 5 3 6 9 10 8 8 8 9 10 11 10 12 10 10 11 14 16 18 18 18 17 17 16 18 19 19 21 21 19 19 20 19 16 16 17 17
3 6 5 5 6 4 5 3 5 4 2 5 7 3 4 5 4 3 3 6 12 11 10 6 6 8 8 9 11 11 10 10 11 17 15 16 16 19 17 15 15 17 20 22 22 21 21 20 21 18 16 15 18 16
6 6 7 7 6 5 6 5 6 4 4 3 3 4 6 3 3 4 2 7 10 9 9 6 6 7 6 6 9 10 11 10 11 12 15 18 17 20 22 21 20 20 20 21 21 24 23 22 22 20 18 16 18 17
5 6 7 6 7 6 3 5 9 4 5 5 4 3 3 4 6 2 5 7 9 9 8 8 9 11 7 8 8 9 10 11 12 9 10 16 17 18 19 22 22 21 20 20 20 20 22 23 22 21 19 18 19 17
7 4 6 8 5 10 3 4 4 5 4 7 9 6 5 4 2 3 4 7 8 8 6 4 5 7 9 15 13 12 11 11 11 12 10 14 17 18 18 17 17 15 15 17 17 18 19 19 19 20 20 19 19 18
5 7 9 6 6 5 6 6 5 7 1 7 5 3 3 3 4 5 8 9 6 6 5 4 2 1 4 9 12 15 14 15 15 16 15 19 19 18 17 17 18 16 15 19 17 16 15 14 14 16 17 17 17 17
5 11 7 8 4 8 4 3 4 7 4 3 7 6 6 6 5 6 8 7 6 6 6 4 3 3 1 3 7 13 12 16 16 15 16 17 21 20 19 21 21 17 18 21 20 19 19 18 18 18 18 18 18 18
6 13 6 8 5 3 5 7 5 7 6 5 6 10 9 7 8 8 8 9 9 8 7 6 5 4 4 5 4 5 6 12 16 12 10 12 11 13 19 21 19 18 20 22 22 23 24 24 22 21 21 20 19 18
8 11 6 7 4 6 8 7 8 6 7 6 5 6 8 7 5 8 10 10 8 7 6 6 5 5 5 6 6 6 6 5 10 14 11 9 9 9 14 20 20 19 21 21 22 23 24 23 23 23 22 21 20 19
8 11 11 6 5 7 7 8 10 8 8 10 7 12 9 7 4 7 12 13 13 9 6 5 5 4 3 3 4 6 8 9 8 11 13 12 11 8 15 20 20 19 20 20 22 22 22 21 21 21 21 21 20 19
Wind_Direction
232 232 233 236 240 237 247 255 261 262 260 255 257 254 249 247 244 241 246 238 234 247 252 243 241 247 256 265 269 276 290 253 218 245 253 246 242 250 253 254 255 257 258 261 274 268 263 277 288 235 289 323 318 319
232 239 245 232 233 252 263 270 271 264 262 259 256 251 247 247 246 243 249 251 251 242 251 236 245 243 239 247 258 266 263 273 313 277 236 261 251 255 249 254 257 261 263 267 258 268 277 281 298 297 295 300 304 305
245 242 228 238 248 266 269 274 275 270 262 254 247 249 252 251 250 245 249 251 246 244 254 250 240 238 243 237 238 261 267 260 267 268 286 288 247 231 265 250 263 259 263 274 279 266 275 290 296 302 300 307 304 305
228 225 242 254 261 267 272 272 272 268 260 255 256 255 256 257 267 249 246 244 240 247 253 261 259 244 244 237 238 237 247 256 259 267 265 255 260 259 260 258 261 264 278 269 265 275 279 277 281 294 302 303 300 287
229 236 248 252 264 269 267 268 265 261 258 253 249 258 260 257 256 264 259 247 244 221 267 270 259 250 246 241 239 240 245 249 250 250 243 249 255 255 260 262 253 250 254 256 260 262 271 282 287 289 294 296 299 292
231 240 248 259 268 263 266 262 258 259 257 263 273 275 273 247 251 261 259 257 247 238 243 257 265 247 237 229 234 234 236 241 240 244 247 247 246 250 266 261 258 264 262 263 266 263 264 274 277 290 293 291 295 299
239 244 248 257 267 260 255 260 259 260 256 271 290 292 281 243 240 241 234 219 233 220 237 267 246 239 228 229 231 236 241 241 242 247 246 253 255 248 257 251 258 259 263 265 269 278 279 278 280 286 288 291 281 254
234 236 245 255 264 266 258 260 270 271 268 280 288 265 234 249 256 261 255 240 204 185 207 257 263 258 204 214 230 235 236 239 225 228 242 236 256 239 243 254 264 262 262 262 263 264 272 280 281 282 289 291 142 109
234 233 243 251 261 268 255 254 266 279 292 289 238 220 235 244 256 304 270 178 202 189 215 217 257 273 189 213 222 244 232 239 233 225 230 234 239 234 241 244 249 251 254 264 269 273 276 276 274 282 281 148 124 122
233 233 238 245 257 257 259 237 283 313 290 188 196 199 200 196 123 108 124 171 192 232 235 247 247 256 189 190 198 209 217 233 248 220 216 217 239 246 256 255 257 261 262 265 271 283 276 288 216 156 130 127 125 130
234 233 231 239 245 249 223 261 325 328 168 185 192 183 170 170 179 216 162 200 197 241 217 234 238 255 229 206 206 199 252 255 254 225 190 235 253 241 251 252 251 252 249 250 268 275 270 132 132 131 128 131 131 131
235 227 228 233 235 241 238 262 319 307 225 205 172 136 158 228 228 241 193 214 210 244 159 203 220 272 201 197 194 209 244 238 252 10 251 264 17 357 357 356 329 257 264 227 111 102 124 132 134 132 129 131 130 130
243 231 230 230 232 237 235 246 290 327 149 146 196 152 183 211 234 230 204 208 213 181 158 164 253 227 176 197 222 221 236 240 355 238 246 18 1 355 12 59 86 130 143 146 139 139 127 127 131 131 127 129 130 131
257 235 230 226 226 229 229 234 262 277 197 236 172 203 220 202 235 226 330 31 121 95 172 192 226 222 187 195 239 246 252 294 264 251 58 6 357 1 48 96 109 106 117 120 122 126 126 123 120 126 130 132 130 126
265 241 231 225 223 224 225 231 243 246 227 233 204 222 218 244 265 335 307 287 227 219 192 191 224 229 206 257 218 262 216 229 251 4 11 348 23 73 90 98 105 109 113 114 120 121 121 124 124 120 122 125 127 128
276 246 236 222 218 220 221 225 237 205 238 234 234 225 260 279 252 224 239 218 177 191 197 213 231 219 216 234 224 240 277 343 27 24 51 48 85 93 97 102 104 110 114 116 117 119 120 122 124 124 125 121 120 119
260 221 227 223 211 207 211 214 205 216 229 222 227 240 247 250 212 204 218 223 191 238 245 220 239 229 232 261 260 24 14 15 53 95 118 119 113 113 107 106 107 111 114 118 122 125 124 122 120 120 117 122 126 123
225 252 254 236 212 204 205 207 233 229 228 236 232 226 226 217 218 229 215 275 306 268 291 318 309 258 253 294 2 42 49 67 94 98 97 106 108 106 111 116 122 129 130 130 129 120 114 116 120 122 124 124 122 119
268 245 233 211 195 179 200 202 226 252 229 228 224 202 203 212 215 219 248 275 290 284 294 281 260 275 16 45 32 96 136 124 104 96 102 111 124 128 129 128 129 130 128 126 118 118 125 133 130 131 126 129 125 128
275 242 209 192 185 191 214 219 194 249 208 216 209 198 201 214 215 224 235 245 257 244 208 244 359 24 4 14 346 166 171 164 141 118 119 125 131 130 126 127 130 133 126 121 127 132 128 127 126 127 132 135 133 132
211 200 175 185 197 217 250 198 204 223 191 199 198 192 187 197 198 212 226 217 216 229 185 84 79 275 200 168 165 162 160 156 155 159 155 145 143 138 133 136 139 137 136 140 137 138 136 133 142 151 148 144 144 144
234 220 170 189 207 209 238 227 245 186 214 201 182 191 166 205 221 222 206 209 232 174 143 154 124 112 125 127 152 153 150 152 172 170 155 156 153 156 157 158 156 154 157 155 153 149 150 164 166 166 160 153 156 152
232 187 179 198 216 215 231 209 215 204 195 183 187 201 189 198 187 167 210 218 163 159 160 151 129 144 151 131 130 144 160 170 178 174 167 162 166 167 169 169 174 167 168 170 169 173 175 177 175 166 162 157 152 145
201 197 213 210 206 196 197 213 226 201 202 182 190 205 186 168 170 217 230 190 149 159 166 161 152 133 143 150 152 154 165 181 180 175 171 169 170 173 173 178 181 181 185 178 185 187 184 184 175 167 163 160 159 154
221 212 193 199 198 159 189 210 214 180 163 220 182 183 147 157 202 225 216 164 156 167 166 168 180 191 187 182 177 179 177 204 188 171 185 187 183 175 176 183 179 185 194 192 193 193 187 186 173 168 172 172 160 162
230 197 197 196 181 182 184 176 187 180 168 220 169 154 150 192 215 226 198 119 143 184 200 184 175 187 204 204 194 202 190 190 199 191 194 196 199 189 181 179 179 187 206 212 205 198 193 183 177 178 175 172 168 174
235 206 201 215 196 195 172 179 185 173 169 194 159 146 149 207 217 116 129 153 173 175 174 187 183 178 172 156 171 142 168 201 223 237 219 208 201 201 204 195 196 203 208 208 212 211 193 185 185 181 179 179 183 188
235 240 180 187 208 190 173 182 184 181 197 179 152 185 199 208 103 113 161 170 178 189 186 185 195 196 203 194 190 197 185 190 188 199 194 185 190 197 204 205 205 217 213 203 202 196 194 195 192 190 192 190 186 192
221 207 194 193 197 190 196 203 205 203 172 192 181 141 102 80 117 152 162 183 184 147 149 150 177 249 233 215 209 205 199 189 193 196 190 184 186 196 202 200 197 203 201 197 193 196 198 201 203 204 202 199 195 195
215 187 196 184 204 204 185 203 144 150 145 115 120 114 104 115 123 161 173 149 133 135 122 106 114 140 141 156 190 199 199 190 197 213 200 198 202 207 203 199 200 200 194 194 191 189 193 196 197 197 196 195 194 194
191 193 215 191 208 170 151 170 164 155 135 144 130 138 133 140 148 157 157 135 125 115 116 104 123 142 139 142 156 182 199 207 206 212 217 225 237 227 214 208 202 199 195 195 197 197 197 198 202 202 202 203 203 202
194 203 197 199 147 154 156 171 169 165 153 153 143 132 145 147 140 173 170 155 166 175 160 143 146 142 156 173 183 197 209 218 211 213 215 214 220 217 206 202 199 200 200 201 202 201 204 207 206 207 209 208 209 209
209 214 219 167 140 170 181 181 189 173 181 176 155 176 182 156 130 178 179 191 198 202 201 196 191 189 195 205 195 210 221 226 225 221 220 217 218 226 210 203 202 203 204 203 202 203 205 209 211 213 211 212 214 213